Regional Weather Roundup
Issued by NWS

Home | Current Version | Previous Version | Text Only | Print | Product List | Glossary Off
Versions: 1 2 3 4 5 6 7 8 9 10 11 12 13 14 15 16 17 18 19 20 21 22 23 24 25 26 27 28 29 30 31 32 33 34 35 36 37 38 39 40 41 42 43 44 45 46 47 48 49 50

000
ASUS43 KMPX 040310
RWRMN
WEATHER ROUNDUP FOR MINNESOTA
NATIONAL WEATHER SERVICE TWIN CITIES/CHANHASSEN MN
1000 PM CDT THU SEP 03 2015


NOTE: "FAIR" INDICATES FEW OR NO CLOUDS BELOW 12,000 FEET WITH NO
SIGNIFICANT WEATHER AND/OR OBSTRUCTIONS TO VISIBILITY. N/A MEANS
CURRENT SKY AND/OR WEATHER CONDITIONS ARE NOT AVAILABLE.

MNZ060>063-068>070-040400-
   Twin Cities Metro

CITY           SKY/WX    TMP DP  RH WIND       PRES   REMARKS
TWIN CITIES    CLEAR     77  70  79 E13       29.90R
ST PAUL        CLEAR     76  70  82 SE7       29.90R
CRYSTAL        CLEAR     80  69  69 E8        29.89R
BLAINE         CLEAR     75  72  88 E7        29.90S
LAKEVILLE      CLEAR     70  70 100 CALM      29.90R
EDEN PRAIRIE   CLEAR     78  72  81 E7        29.88R
SOUTH ST PAUL  CLEAR     76  69  78 CALM      29.90R
LAKE ELMO      FAIR      73  70  88 E3        29.92R
$$
MNZ001>005-007-008-013>017-022>024-027-028-040400-
   Northwest Minnesota

CITY           SKY/WX    TMP DP  RH WIND       PRES   REMARKS
BEMIDJI        CLEAR     71  67  85 SE9       29.89R
HALLOCK        PTCLDY    82  72  69 S17       29.74R
ROSEAU         CLEAR     75  66  73 SE15G21   29.80S
WARROAD        CLEAR     75  66  73 SE14G20   29.82S
THIEF RVR FALL PTCLDY    77  72  83 SE7       29.82R
CROOKSTON      PTCLDY    81  72  74 S13       29.79R
FOSSTON        CLEAR     73  66  78 SE9G16    29.85R
DETROIT LAKES  CLEAR     75  70  83 SE12      29.87R
MOORHEAD       CLEAR     81  73  78 SE9       29.80S
PARK RAPIDS    CLEAR     75  67  76 SE12      29.90R
MAHNOMEN       FAIR      76  71  84 SE9       29.84R
$$
MNZ006-009>011-018-025>026-040400-
   North Central Minnesota

CITY           SKY/WX    TMP DP  RH WIND       PRES   REMARKS
BAUDETTE       CLEAR     71  63  75 SE10      29.87R
FLAG ISLAND    CLEAR     73  64  73 S15       29.83R
INTL FALLS     CLEAR     67  62  84 SE8       29.92R
WASKISH        CLEAR     70  63  78 E6        29.89R
BIG FORK       CLEAR     68  61  77 SE6       29.94R
LONGVILLE      CLEAR     70  66  88 SE6       29.93R
GRAND RAPIDS     N/A     66  61  82 SE6       29.95R
CRANE LAKE     CLEAR     57  55  94 S1        29.97R
ORR            CLEAR     64  52  63 SE6       29.94R
COOK           CLEAR     64  54  68 SE3       29.97R
WALKER         FAIR      72  66  83 SE6       29.91R
$$
MNZ012-019>021-037-040400-
   Northeast Minnesota

CITY           SKY/WX    TMP DP  RH WIND       PRES   REMARKS
DULUTH         CLEAR     59  52  77 E3        29.99R
ELY            CLEAR     61  50  67 SE3       29.99R
HIBBING        CLEAR     60  52  74 SE6       29.98R
EVELETH        CLEAR     59  50  72 E3        29.99S
DULUTH HARBOR  CLEAR     61  57  88 E8        29.98R
TWO HARBORS    CLEAR     59  54  82 NE5       29.97S
SILVER BAY     CLEAR     57  52  82 N5        29.98S
GRAND MARAIS     N/A     58  55  90 CALM      30.00R
G MARAIS ARPRT CLEAR     61  52  72 E7        30.05R
$$
MNZ029>031-032-039>041-046>048-054>057-064-040400-
   West Central Minnesota

CITY           SKY/WX    TMP DP  RH WIND       PRES   REMARKS
FERGUS FALLS   CLEAR     79  73  83 SE12G17   29.82S
WHEATON        CLEAR     75  72  88 E12       29.83S
MORRIS         CLEAR     79  75  89 SE12      29.84R
ALEXANDRIA     CLEAR     75  72  90 SE12      29.90R
ELBOW LAKE     FAIR      77  74  90 SE10      29.85R
WADENA         CLEAR     73  70  88 SE7       29.90R
GLENWOOD       CLEAR     75  72  88 E9        29.90R
APPLETON       MOCLDY    81  73  78 E7        29.83R
BENSON         CLEAR     79  72  78 SE9       29.85R
ORTONVILLE     PTCLDY    79  73  83 SE8       29.83R
MADISON        PTCLDY    79  73  83 SE7       29.83S
WILLMAR        FAIR      79  75  89 E9        29.88R
$$
MNZ033>034-036-042>043-049>051-058-059-040400-
   Central Minnesota

CITY           SKY/WX    TMP DP  RH WIND       PRES   REMARKS
ST CLOUD       CLEAR     74  70  87 E8        29.90R
SAUK CENTRE    FAIR      74  71  89 E7        29.90R
PAYNESVILLE    CLOUDY    76  71  85 NE7       29.89S
AITKIN         CLEAR     66  61  82 E5        29.94R
PINE RIVER     CLEAR     72  66  83 E8        29.95R
BRAINERD       CLEAR     72  67  84 VRB5      29.92R
STAPLES        CLEAR     73  66  78 SE6       29.90S
LONG PRAIRIE   CLOUDY    73  70  88 E7        29.91R
LITTLE FALLS   PTCLDY    72  66  83 E6        29.90S
LITCHFIELD     CLEAR     75  75 100 E8        29.89R
BUFFALO        CLEAR     74  69  85 E3        29.90R
MAPLE LAKE     CLEAR     75  72  89 E6        29.90R
$$
MNZ037-044-045-052-053-040400-
   East Central Minnesota

CITY           SKY/WX    TMP DP  RH WIND       PRES   REMARKS
PRINCETON      CLEAR     73  70  88 CALM      29.91S
MORA           CLEAR     68  64  88 CALM      29.95R
CAMBRIDGE      PTCLDY    75  64  69 E5        29.90R
RUSH CITY      CLEAR     72  67  87 E5        29.93R
MOOSE LAKE     CLEAR     59  55  88 NE5       29.95R
HINCKLEY       FAIR      64  64 100 NE3       29.95R
CLOQUET        CLEAR     59  52  77 E5        29.97S
MCGREGOR       CLEAR     61  57  88 CALM      29.96R
$$
MNZ071>073-080-081-089-090-097-098-040400-
   Southwest Minnesota

CITY           SKY/WX    TMP DP  RH WIND       PRES   REMARKS
MONTEVIDEO     PTCLDY    79  75  89 S6        29.86R
GRANITE FALLS  CLEAR     78  75  92 E5        29.86R
CANBY          CLEAR     75  72  90 SE5       29.85R
MARSHALL       CLEAR     77  70  78 SE7       29.86R
REDWOOD FALLS  CLEAR     78  75  90 E7        29.85R
OLIVIA         CLEAR     77  72  83 E9        29.86R
PIPESTONE      PTCLDY    75  72  88 SE5       29.86S
WINDOM         CLEAR     75  72  88 CALM      29.88R
WORTHINGTON    PTCLDY    73  70  88 E6        29.87R
JACKSON        PTCLDY    77  73  88 SE5       29.88R
TRACY          CLEAR     76  73  91 SE3       29.86S
SLAYTON        CLEAR     73  73  98 CALM      29.88R
$$
MNZ065>067-074>077-082>085-091>093-040400-
   South Central Minnesota

CITY           SKY/WX    TMP DP  RH WIND       PRES   REMARKS
MANKATO        CLEAR     79  73  83 SE8       29.88R
NEW ULM        CLEAR     79  75  89 SE7       29.86R
ST JAMES       CLEAR     77  73  88 SE5       29.87R
FAIRMONT       PTCLDY    77  64  65 SE8       29.87R
GLENCOE        CLEAR     78  75  91 E9        29.87S
FARIBAULT      CLEAR     77  73  88 E5        29.90R
OWATONNA       CLEAR     79  73  83 SE6       29.90R
WASECA         CLEAR     77  73  88 E6        29.91R
ALBERT LEA     PTCLDY    79  73  83 SE6       29.90R
$$
MNZ078>079-086>088-094>096-040400-
   Southeast Minnesota

CITY           SKY/WX    TMP DP  RH WIND       PRES   REMARKS
ROCHESTER      CLEAR     75  73  93 SE8       29.93R
RED WING       CLEAR     75  70  83 E7        29.90R
STANTON        CLEAR     76  71  86 E5        29.89R
DODGE CENTER   CLEAR     75  73  94 E5        29.92R
WINONA         CLEAR     77  70  78 SE5       29.92R
AUSTIN         CLEAR     75  72  88 CALM      29.91R
PRESTON        CLEAR     77  72  86 E6        29.94R
$$
ABBREVIATIONS USED IN REMARKS
   TC - TEMPERATURES IN CELSIUS
  WCI - WIND CHILL INDEX
   HX - HEAT INDEX
  VSB - VISIBILITY
$$


USA.gov is the U.S. government's official web portal to all federal, state and local government web resources and services.